Regional Weather Roundup
Issued by NWS

Home | Current Version | Previous Version | Text Only | Print | Product List | Glossary Off
Versions: 1 2 3 4 5 6 7 8 9 10 11 12 13 14 15 16 17 18 19 20 21 22 23 24 25 26 27 28 29 30 31 32 33 34 35 36 37 38 39 40 41 42 43 44 45 46 47 48 49 50

000
ASUS43 KMKX 292100
RWRWI

WISCONSIN REGIONAL WEATHER ROUNDUP
NATIONAL WEATHER SERVICE MILWAUKEE/SULLIVAN WI
400 PM CDT SAT APR 29 2017

NOTE: "FAIR" INDICATES FEW OR NO CLOUDS BELOW 12,000 FEET WITH NO
SIGNIFICANT WEATHER AND/OR OBSTRUCTIONS TO VISIBILITY.

WIZ001-002-006>008-014>016-023>028-292200-
NORTHWEST WISCONSIN

CITY           SKY/WX    TMP DP  RH WIND       PRES   REMARKS
SUPERIOR ARPT  PTSUNNY   44  28  53 E10       30.39R
ASHLAND        CLOUDY    46  19  34 N17G23    30.38S
HAYWARD        PTSUNNY   50  21  32 N13       30.33R
SIREN          CLOUDY    54  17  23 NE10      30.32R
CUMBERLAND     PTSUNNY   52  23  32 NE9       30.30S
RICE LAKE      PTSUNNY   54  23  30 N12G18    30.31R
CHETEK         NOT AVBL
LADYSMITH      PTSUNNY   53  26  34 E10       30.31R
EAU CLAIRE     NOT AVBL
MENOMONIE      PTSUNNY   54  24  32 NE8       30.28F
NEW RICHMOND   CLOUDY    53  21  28 NE12      30.29F
OSCEOLA        PTSUNNY   55  23  29 NE10G16   30.33S
$$

WIZ003>005-009-010-017-018-292200-
NORTH CENTRAL WISCONSIN

CITY           SKY/WX    TMP DP  RH WIND       PRES   REMARKS
MANITOWISH WTR CLOUDY    48  22  36 NE3       30.31S
ARBOR VITAE    CLOUDY    50  23  34 CALM      30.30S
WOODRUFF       CLOUDY    50  23  34 CALM      30.30S
RHINELANDER    CLOUDY    51  25  36 E8        30.29F
EAGLE RIVER    CLOUDY    48  21  33 NE8       30.30S
LAND O LAKES   CLOUDY    49  20  32 NE7G18    30.32F
PHILLIPS       PTSUNNY   49  24  36 E8G16     30.29R
TOMAHAWK       CLOUDY    49  24  37 E7        30.29S
MEDFORD        CLOUDY    50  27  40 NE9       30.27R
MERRILL        CLOUDY    51  29  41 NE9       30.28S
$$

WIZ029-030-035-036-043>047-292200-
CENTRAL WISCONSIN

CITY           SKY/WX    TMP DP  RH WIND       PRES   REMARKS
WAUSAU         PTSUNNY   51  27  39 E8        30.25S
MOSINEE        CLOUDY    52  28  40 NE10G18   30.27S
MARSHFIELD     CLOUDY    50  27  40 E10       30.24F
STEVENS POINT  CLOUDY    47  27  44 E10       30.28R
WAUPACA        CLOUDY    49  31  50 E9        30.28F
WAUTOMA        CLOUDY    46  29  51 NE15G22   30.24F
WISC RAPIDS    CLOUDY    49  29  46 E9        30.27S
CAMP DOUGLAS   NOT AVBL
$$

WIZ011>013-019>022-031-037>040-048>050-292200-
NORTHEAST WISCONSIN

CITY           SKY/WX    TMP DP  RH WIND       PRES   REMARKS
ANTIGO         CLOUDY    49  28  42 E8G17     30.27F
SHAWANO        CLOUDY    50  35  55 E7        30.28F
OCONTO         NOT AVBL
STURGEON BAY   PTSUNNY   45  29  53 E9        30.29F
GREEN BAY      CLOUDY    48  32  53 NE14      30.29R
MANITOWOC      NOT AVBL
APPLETON       CLOUDY    46  23  39 NE16G23   30.26F
CLINTONVILLE   CLOUDY    46  32  57 SE7       30.29R
OSHKOSH        CLOUDY    45  30  55 NE17G24   30.25F
$$

WIZ032>034-041-042-053>061-292200-
SOUTHWEST WISCONSIN

CITY           SKY/WX    TMP DP  RH WIND       PRES   REMARKS
LA CROSSE      CLOUDY    50  27  40 NE12      30.23F
SPARTA         CLOUDY    48  29  47 NE12      30.26F
VIROQUA        CLOUDY    45  30  56 NE15G21   30.21F
BOSCOBEL       LGT RAIN  47  32  56 NE10G17   30.19F
PRAIRIE DU CHI LGT RAIN  46  31  57 N7        30.18F
PLATTEVILLE    PTSUNNY   43  38  82 NE18G25   30.15F
$$

WIZ056-057-062-063-064-067-068-292200-
SOUTH CENTRAL WISCONSIN

CITY           SKY/WX    TMP DP  RH WIND       PRES   REMARKS
REEDSBURG      CLOUDY    45  30  56 NE12G18   30.19F
BARABOO/DELLS  CLOUDY    44  29  56 NE13G21   30.20F
LONE ROCK      NOT AVBL
MINERAL POINT  CLOUDY    45  36  70 NE14G21   30.16F
MADISON        LGT RAIN  44  35  70 NE14      30.18S
MIDDLETON      CLOUDY    44  36  74 NE18G24   30.19S
WATERTOWN      CLOUDY    42  32  68 NE18      30.19F
MONROE         LGT RAIN  41  34  75 NE20      30.13S
JANESVILLE     LGT RAIN  43  37  81 NE16G22   30.13F
$$

WIZ051-052-058>065-066-070>072-292200-
SOUTHEAST WISCONSIN

CITY           SKY/WX    TMP DP  RH WIND       PRES   REMARKS
MILWAUKEE      LGT RAIN  39  33  79 N20G36    30.17F WCI  29
WAUKESHA       LGT RAIN  39  28  65 NE15G21   30.18F WCI  31
MILWAUKEE/TIMM CLOUDY    39  27  60 N18G29    30.20F WCI  30
RACINE         LGT RAIN  38  33  82 N24G35    30.16F WCI  27
KENOSHA        LGT RAIN  39  33  79 NE17G26   30.16F WCI  30
FOND DU LAC    CLOUDY    44  29  55 NE25G31   30.21F
SHEBOYGAN      CLOUDY    40  33  76 NE23G33   30.23F WCI  30
WEST BEND      CLOUDY    39  32  75 NE16G23   30.21F WCI  30
JUNEAU         CLOUDY    43  32  64 N14G24    30.21F
$$

LSZ147-162-292200-
LAKE SUPERIOR

STATION/POSITION TIME  TEMP    WIND        PRES    WAVE
                       AIR SEA DIR/SP/G            HT/PER
                 (UTC) (F)     (DEG/KT/KT) (MB)    (FT/S)
DEVILS ISLAND    2000   37      30/  3/  4 1030.6R
SAXON HARBOR     2040   39      40/  8/  9 1028.8F
$$

LMZ867-665-643>646-292200-
LAKE MICHIGAN

STATION/POSITION TIME  TEMP    WIND        PRES    WAVE
                       AIR SEA DIR/SP/G            HT/PER
                 (UTC) (F)     (DEG/KT/KT) (MB)    (FT/S)
CHAMBERS ISLAND  2030   44      40/ 10/ 16 1025.7F
N MID LAKE BUOY  1950   39 38  290/  4/  4 1027.9R   1
NORTHPORT PIER   2040   45        CALM     1026.1F
KEWAUNEE LAKESHO 2030   40      30/ 11/ 14 1025.3F
SHEBOYGAN LAKESH 2000   38      10/ 22/ 24 1025.8F
PORT WASHINGTON  2040   41      30/ 12/ 20 1024.0F
MILWAUKEE LAKESH 2030   39      20/ 24/ 28   N/A
S MID LAKE BUOY  1950   39 41   10/ 21/ 25 1021.6F   6/ 6
KENOSHA   LAKESH 2000   39      20/ 28/ 32 1021.7
$$

TC  - TEMPERATURE IN CELSIUS
VSB - VISIBILITY IN STATUTE MILES
WCI - WIND CHILL INDEX
HX  - HEAT INDEX





USA.gov is the U.S. government's official web portal to all federal, state and local government web resources and services.